Welcome to Bucharest LROP 231130Z 24012KT 180V260 CAVOK 32/18 Q1011 NOSIG

Down the Danube 6

63

arrivals

43

departures

16z-22z

6 hours full ATC

 

Please note!

This website is intended for flight simulation only. Information presented here should not be used in real life flight situations.